TITAN 3C TRANSTAGE DEB, 3373

Orbit data source: Space-Track

TITAN 3C TRANSTAGE DEB, 3373 is space debris in LEO originally from a launch on Fri, 15 Oct 1965 UTC launched from the Air Force Eastern Test Range (AFETR). Debris objects in space refer to the collection of defunct objects orbiting the Earth. Examples of debris include non-operational satellites, rocket bodies, and fragments generated from explosions, collisions, or faulty payload assembly.

Loading next visibility...
Identifier
3373, 1965-082ML
Orbit
LEO
Last TLE update
8 hours ago
Origin
Manufacturer
Unknown
Mission
Spacecraft
Bus & Motor
Unknown
Mass
Unknown
Launch date (UTC)
1965-10-15 (60 years ago)
Launch vehicle
Unknown
Launch site
Air Force Eastern Test Range (AFETR)
Object type
Payload
Rocket body
Debris
Shape & HBR
Unknown
Radar Cross Section
Small (<0.1 m²)

Expand to show TLE details & history

TLE from 8 hours ago
0 TITAN 3C TRANSTAGE DEB
1  3373U 65082ML  25199.67413799  .00002442  00000-0  52991-3 0  9990
2  3373  30.9768 301.7316 0157257 178.7582 181.3451 14.48637268 23060
Epoch: 2025-07-18T16:10Z
TLE epoch observation values (Epoch: 2025-07-18T16:10:45.522Z)
Latitude
0.00002°
Longitude
122.31974°
Altitude
840.373 km
Speed
7.376 km/s
True Right ascension
20h 06m 55s
True Declination
0° 00' 00"
Sunlit
Object was in full shadow at epoch
Visualization orbit readout
Latitude
-10.79636°
Longitude
-41.10358°
Altitude
625.162 km
Speed
7.603 km/s
Apparent Right ascension
06h 12m 22s
Apparent Declination
-45° 45' 07"
Sunlit
Object is in daylight
Visualization observer readout
Local Sidereal Time
12:30:35
Azimuth
233.544° WSW
Elevation
-30.141°
Doppler factor
1
Orbital elements
Apogee altitude
845.685 km
Perigee altitude
622.003 km
Semi-major axis
7,111.981 km
Eccentricity
0.01573
Inclination
30.9768°
RAAN
301.7316°
Arg. of periapsis
178.7582°
True anomaly
181.30361°
Mean anomaly
181.3451°
Eccentric anomaly
181.32428°
Mean motion
3.61874 °/min
Orbital period
99.48 mins
BSTAR
0.00052991
Loading maneuver chart data...
Loading SW <> Apogee altitude chart data...
|